CW1102 Weather Reports


Display with metric or nautical units.
time (UTC)temp
F
wind
direction
speed
MPH
gust
MPH
rain 1hr
in
rain 24hr
in
rain mn
in
humidity
%
barometer
mb
20260506113012 38 127 0.0 1.0 0.00 0.00 0.00 89 1014.5
20260506111510 38 94 0.0 0.0 0.00 0.00 0.00 88 1014.4
20260506110009 38 141 0.0 0.0 0.00 0.00 0.00 88 1014.2
20260506104506 38 155 0.0 0.0 0.00 0.00 0.00 89 1014.1
20260506103004 39 82 0.0 0.0 0.00 0.00 0.00 88 1013.9
20260506101504 39 82 0.0 1.0 0.00 0.00 0.00 88 1013.7
20260506100119 39 113 0.0 0.0 0.00 0.00 0.00 88 1013.6
20260506094557 40 113 0.0 0.0 0.00 0.00 0.00 87 1013.5
20260506093054 40 113 0.0 1.0 0.00 0.00 0.00 87 1013.5
20260506091553 40 17 0.0 0.0 0.00 0.00 0.00 88 1013.3
20260506090050 40 17 0.0 1.0 0.00 0.00 0.00 86 1013.3
20260506084610 41 112 0.0 1.0 0.00 0.00 0.00 85 1013.1
20260506083044 42 120 0.0 2.0 0.00 0.00 0.00 84 1013.0
20260506073044 45 177 0.0 0.0 0.00 0.00 0.00 81 1012.6
20260506071530 45 205 0.0 2.0 0.00 0.00 0.00 80 1012.5
20260506061520 49 143 0.0 1.0 0.00 0.00 0.00 75 1011.8
20260506044538 54 134 1.0 6.0 0.00 0.00 0.00 64 1011.2
20260506043011 55 128 0.0 1.0 0.00 0.00 0.00 62 1011.0
20260506041509 56 63 0.0 2.0 0.00 0.00 0.00 62 1010.7
20260506040006 59 309 1.0 3.0 0.00 0.00 0.00 55 1010.5
20260506034513 60 268 0.0 2.0 0.00 0.00 0.00 54 1010.2
20260506033007 62 276 0.0 2.0 0.00 0.00 0.00 48 1010.0
20260506031506 63 250 2.0 3.0 0.00 0.00 0.00 44 1009.7
20260506030004 65 278 0.0 3.0 0.00 0.00 0.00 44 1009.5
20260506024504 68 46 3.0 8.0 0.00 0.00 0.00 36 1009.2
20260506023004 69 49 3.0 9.0 0.00 0.00 0.00 35 1009.0
20260506021503 70 345 5.0 13.0 0.00 0.00 0.00 36 1008.8
20260506014502 71 327 6.0 16.0 0.00 0.00 0.00 36 1008.5
20260506013100 72 72 4.0 10.0 0.00 0.00 0.00 37 1008.4
20260506011625 72 15 4.0 15.0 0.00 0.00 0.00 35 1008.4
20260506010200 72 60 6.0 12.0 0.00 0.00 0.00 35 1008.2
20260506004627 73 310 5.0 12.0 0.00 0.00 0.00 35 1008.2
20260506003112 72 67 6.0 14.0 0.00 0.00 0.00 36 1008.1
20260506001559 72 48 11.0 18.0 0.00 0.00 0.00 37 1008.1
20260506000057 73 329 8.0 15.0 0.00 0.00 0.00 36 1008.1
20260505234632 72 1 6.0 13.0 0.00 0.00 0.00 36 1008.2
20260505233102 74 8 4.0 14.0 0.00 0.00 0.00 34 1008.0
20260505231559 74 34 7.0 12.0 0.00 0.00 0.00 33 1007.9
20260505230054 74 12 9.0 16.0 0.00 0.00 0.00 34 1007.9
20260505224554 74 30 9.0 15.0 0.00 0.00 0.00 34 1008.0
20260505223053 74 56 4.0 12.0 0.00 0.00 0.00 33 1007.9
20260505221553 74 37 10.0 16.0 0.00 0.00 0.00 33 1008.1
20260505214601 72 330 7.0 15.0 0.00 0.00 0.00 33 1008.0
20260505213100 73 63 6.0 14.0 0.00 0.00 0.00 33 1008.0
20260505211557 74 53 8.0 12.0 0.00 0.00 0.00 32 1008.1
20260505210048 74 276 3.0 7.0 0.00 0.00 0.00 31 1008.1
20260505204548 74 290 4.0 7.0 0.00 0.00 0.00 32 1008.1
20260505203048 75 283 1.0 10.0 0.00 0.00 0.00 31 1008.2
20260505201545 75 255 3.0 8.0 0.00 0.00 0.00 30 1008.3
20260505200043 74 30 1.0 6.0 0.00 0.00 0.00 31 1008.4
20260505194544 74 285 4.0 7.0 0.00 0.00 0.00 31 1008.5
20260505193044 74 295 5.0 9.0 0.00 0.00 0.00 31 1008.6
20260505191550 74 45 3.0 10.0 0.00 0.00 0.00 32 1008.7
20260505190038 75 280 3.0 7.0 0.00 0.00 0.00 30 1008.9
20260505184532 73 231 2.0 4.0 0.00 0.00 0.00 29 1008.9
20260505183030 72 272 1.0 5.0 0.00 0.00 0.00 30 1009.0
20260505181527 71 274 2.0 4.0 0.00 0.00 0.00 35 1009.0
20260505180037 69 264 1.0 5.0 0.00 0.00 0.00 39 1009.1
20260505174620 67 47 1.0 4.0 0.00 0.00 0.00 48 1009.1
20260505173016 65 328 0.0 4.0 0.00 0.00 0.00 54 1009.3
20260505171515 64 288 1.0 3.0 0.00 0.00 0.00 56 1009.4
20260505170022 62 278 0.0 4.0 0.00 0.00 0.00 57 1009.5
20260505164507 61 306 1.0 4.0 0.00 0.00 0.00 58 1009.6
20260505163005 58 264 1.0 3.0 0.00 0.00 0.00 63 1009.7
20260505161502 57 288 0.0 3.0 0.00 0.00 0.00 64 1009.8
20260505153058 53 298 1.0 4.0 0.00 0.00 0.00 70 1010.2
20260505151553 52 59 0.0 2.0 0.00 0.00 0.00 70 1010.2
20260505124535 38 104 0.0 1.0 0.00 0.00 0.00 92 1009.5
20260505123051 38 103 0.0 1.0 0.00 0.00 0.00 90 1009.3
20260505121530 38 78 0.0 0.0 0.00 0.00 0.00 90 1009.1
20260505120030 38 78 0.0 1.0 0.00 0.00 0.00 89 1009.0
20260505114525 39 212 0.0 1.0 0.00 0.00 0.00 89 1008.8